[[{"header":{"parameterUnit":"m.s-1","parameterCategory":1,"la1":30.2992,"la2":30.254,"lo1":-89.0895,"lo2":-89.0443,"dy":0.0025,"dx":0.0025,"nx":19,"ny":19,"refTime":"2026-04-12T09:00:00:Z","depth":0,"parameterNumber":2,"parameterNumberName":"U-component_of_WINDS"},"data":[0,0,0,-4.6132,-4.6136,-4.6321,-4.6322,-4.6551,-4.6553,0,0,0,0,0,0,0,0,0,0,0,-4.6073,-4.6075,-4.6131,-4.6136,-4.6321,-4.6322,-4.6551,-4.6553,0,0,0,0,0,0,0,0,0,0,0,-4.6072,-4.6074,-4.6076,-4.6137,-4.6321,-4.6322,-4.655,-4.6413,0,0,0,0,0,0,0,0,0,0,-4.6234,-4.6177,-4.6074,-4.6076,-4.6138,-4.6321,-4.6322,-4.6406,-4.6421,-4.6464,0,-4.6502,0,-4.6531,-4.6568,-4.6569,0,0,0,-4.6139,-4.6164,-4.6218,-4.6076,-4.6139,-4.632,-4.6238,-4.6415,-4.6432,-4.6484,-4.6505,-4.6514,-4.6535,-4.6569,-4.657,-4.6809,-4.681,0,0,-4.6128,-4.6104,-4.6206,-4.6228,-4.62,-4.6232,-4.6244,-4.6425,-4.6446,-4.6506,-4.6519,-4.6539,-4.6571,-4.6573,-4.6808,-4.6809,0,0,0,-4.6097,-4.6097,-4.6146,-4.6219,-4.6253,-4.6238,-4.6251,-4.6438,-4.6456,-4.6522,-4.6541,-4.6572,-4.6575,-4.6807,-4.6808,-4.6833,0,0,0,-4.6091,-4.6079,-4.6142,-4.6129,-4.6249,-4.6348,-4.626,-4.6444,-4.6465,-4.654,-4.6572,-4.6577,-4.6806,-4.6808,-4.683,-4.6848,0,0,0,-4.6062,-4.6076,-4.6101,-4.6127,-4.6206,-4.6346,-4.6374,-4.6449,-4.6477,-4.6569,-4.6578,-4.6805,-4.6807,-4.6827,-4.6843,-4.6902,0,0,0,-4.6024,-4.6121,-4.6101,-4.6217,-4.6204,-4.636,-4.6373,-4.6491,-4.6573,-4.6573,-4.6806,-4.6808,-4.6826,-4.6841,-4.6899,-4.6946,-4.6963,0,0,-4.6133,-4.6133,-4.6203,-4.6191,-4.6344,-4.6334,-4.6491,-4.6589,-4.662,-4.6744,-4.675,-4.6831,-4.6843,-4.6901,-4.7074,-4.7088,0,0,0,-4.6229,-4.6279,-4.6325,-4.6402,-4.6479,-4.6546,-4.6623,-4.6659,-4.6765,-4.6679,-4.687,-4.6878,-4.6913,-4.6936,-4.6948,-4.6979,-4.6818,-4.6818,-4.6818,-4.6347,-4.6382,-4.6499,-4.6555,-4.6629,-4.6707,-4.677,-4.6832,-4.6845,-4.6889,-4.6926,-4.7026,-4.7053,-4.7062,-4.7093,-4.6955,-4.6955,-4.6955,-4.6955,-4.6508,-4.6582,-4.6597,-4.6716,-4.6751,-4.6851,-4.693,-4.6935,-4.7033,-4.7002,-4.7035,-4.6996,-4.7076,-4.7105,-4.6957,-4.6957,-4.6957,-4.6957,-4.6956,-4.6587,-4.6629,-4.6671,-4.6785,-4.6869,-4.6923,-4.7016,-4.7045,-4.7074,-4.7106,-4.7146,-4.7146,-4.7148,-4.7124,-4.7124,-4.7124,-4.7125,-4.7125,-4.7125,-4.6652,-4.6699,-4.6774,-4.6864,-4.6916,-4.6989,-4.7068,-4.712,-4.7186,-4.7199,-4.72,-4.7207,-4.7078,-4.7044,-4.7131,-4.713,-4.7129,-4.7128,-4.7128,-4.6799,-4.677,-4.6885,-4.6938,-4.7045,-4.7125,-4.7162,-4.7266,-4.7313,-4.7358,-4.7359,-4.7259,-4.7261,-4.7252,-4.7224,-4.7352,-4.7352,-4.7352,-4.7352,-4.6865,-4.6869,-4.6992,-4.7074,-4.7158,-4.7202,-4.733,-4.7392,-4.7451,-4.7482,-4.7469,-4.7434,-4.7424,-4.7432,-4.7419,-4.7393,-4.7561,-4.7562,-4.7562,-4.6956,-4.697,-4.7073,-4.713,-4.7216,-4.7288,-4.7409,-4.7501,-4.7563,-4.7571,-4.7507,-4.7498,-4.7443,-4.7424,-4.7428,-4.7407,-4.736,0,0]},{"header":{"parameterUnit":"m.s-1","parameterCategory":1,"la1":30.2992,"la2":30.254,"lo1":-89.0895,"lo2":-89.0443,"dy":0.0025,"dx":0.0025,"nx":19,"ny":19,"refTime":"2026-04-12T09:00:00:Z","depth":0,"parameterNumber":3,"parameterNumberName":"V-component_of_WINDS"},"data":[0,0,0,4.2223,4.2227,4.2417,4.2418,4.2649,4.2651,0,0,0,0,0,0,0,0,0,0,0,4.2161,4.2162,4.2223,4.2228,4.2417,4.2418,4.2649,4.2651,0,0,0,0,0,0,0,0,0,0,0,4.216,4.2162,4.2164,4.2228,4.2417,4.2418,4.2649,4.2509,0,0,0,0,0,0,0,0,0,0,4.2327,4.2263,4.2161,4.2164,4.2229,4.2417,4.2418,4.2503,4.2518,4.2559,0,4.2594,0,4.2626,4.2666,4.2667,0,0,0,4.2232,4.2251,4.2307,4.2164,4.2231,4.2416,4.2333,4.2511,4.2529,4.2579,4.2598,4.2606,4.263,4.2668,4.2669,4.2891,4.2892,0,0,4.2222,4.2192,4.2295,4.2318,4.2289,4.2327,4.2339,4.2522,4.254,4.2598,4.2612,4.2634,4.2669,4.2671,4.289,4.2891,0,0,0,4.2188,4.2184,4.2237,4.2308,4.2343,4.2332,4.2346,4.2532,4.2551,4.2615,4.2637,4.267,4.2673,4.289,4.2891,4.2903,0,0,0,4.2182,4.2165,4.2232,4.2215,4.234,4.244,4.2351,4.2539,4.256,4.2636,4.2671,4.2675,4.2889,4.289,4.2901,4.2914,0,0,0,4.2151,4.2161,4.2186,4.2213,4.2294,4.2438,4.2468,4.2544,4.2574,4.2667,4.2676,4.2888,4.289,4.2899,4.2911,4.2964,0,0,0,4.2108,4.2194,4.2186,4.2291,4.2292,4.2444,4.2467,4.2582,4.2663,4.2672,4.2889,4.2891,4.2898,4.2909,4.2962,4.3004,4.3019,0,0,4.22,4.2204,4.2268,4.2266,4.2412,4.2417,4.2565,4.2668,4.2704,4.2827,4.2832,4.2901,4.291,4.2964,4.311,4.3122,0,0,0,4.2287,4.2333,4.2378,4.2454,4.2535,4.2606,4.2689,4.2727,4.2833,4.2761,4.2936,4.2942,4.2974,4.2996,4.3006,4.3036,4.2899,4.2899,4.2899,4.2374,4.2416,4.2525,4.259,4.2663,4.2749,4.2813,4.2879,4.2899,4.294,4.2977,4.306,4.3085,4.3092,4.3123,4.3002,4.3002,4.3002,4.3002,4.2513,4.2584,4.261,4.2725,4.2768,4.2865,4.2951,4.2962,4.3059,4.3036,4.3067,4.3039,4.3103,4.3133,4.3003,4.3003,4.3003,4.3003,4.3003,4.2575,4.2617,4.2662,4.2777,4.2861,4.2924,4.3015,4.3052,4.3086,4.3117,4.316,4.316,4.3165,4.3135,4.3135,4.3135,4.3136,4.3136,4.3136,4.2622,4.2673,4.2746,4.2839,4.2893,4.2969,4.3055,4.311,4.3179,4.3198,4.3199,4.3215,4.3102,4.3073,4.3141,4.314,4.3139,4.3139,4.3139,4.2749,4.2726,4.2839,4.2893,4.3006,4.3087,4.3132,4.3239,4.3289,4.3333,4.3344,4.3253,4.326,4.3253,4.3229,4.3334,4.3334,4.3334,4.3334,4.2802,4.2809,4.2933,4.3017,4.3104,4.3156,4.3282,4.335,4.3417,4.3451,4.3441,4.3412,4.3403,4.3415,4.3404,4.3383,4.3524,4.3525,4.3525,4.2883,4.29,4.3001,4.3066,4.3156,4.3233,4.3353,4.3449,4.352,4.3533,4.3478,4.347,4.3424,4.3407,4.3419,4.3402,4.3363,0,0]}]]